◎2004 RZ164の軌道と予報位置です



  美星で行なわれているスカイ・サーベイで,12月8日夜,日々運動が 21゚以上

の超高速で動く,11等級の明るい天体がキャッチされました.同所の浅見敦夫氏

の調査では,この天体は,すでに9月に発見されていた2004 RZ164であることが,

判明しました.

 我が国では,この小惑星は,雄踏の和久田俊一氏により,これまで追跡されて

いました.12月7日の同氏の光度は,12.0等,8日の美星での光度は,11.5等で

した.小惑星は,2004年12月8日18時に地球に 0.01798AUまで接近していました.

なお,最接近は,過ぎましたが,小惑星は,今後,しばらく明るく観測できます.



No identification:

 

2004 RZ164                                                                  

Epoch 2005 Jan. 30.0 TT = JDT 2453400.5                 MPC      

M  15.80262              (2000.0)            P               Q

n   0.24162072     Peri.  344.24215     +0.49843273     -0.83585877

a   2.5529752      Node    75.36239     +0.81886312     +0.36680899

e   0.6150075      Incl.   13.75239     +0.28465418     +0.40840088

P   4.08           H   18.9           G   0.15           U   3

Residuals in seconds of arc 

040823 E12  0.6-  0.4+    041031 474  0.2-  0.1+    041206 379  0.1+  0.5+  

040823 E12  0.5-  0.4-    041031 474  0.2-  0.1-    041206 379  0.2-  0.3-  

040823 E12  0.2-  0.0     041112 413  0.1-  0.0     041206 379  0.5+  0.5+  

040823 E12  0.4-  0.0     041112 413  0.1-  0.0     041206 379  0.1-  0.2-  

040913 E12  0.8-  0.4+    041112 413  0.1-  0.0     041206 379  0.1+  0.3+  

040913 E12  0.1-  0.1-    041118 E12  0.2+  0.0     041206 938  0.0   0.9+  

040913 E12  0.0   0.5-    041118 E12  0.3+  0.2-    041206 938  0.3+  0.9+  

040913 E12  0.1-  0.1+    041118 E12  0.1+  0.1-    041206 938  0.4+  0.8+  

040914 E12  0.7-  0.5+    041118 E12  0.1+  0.2+    041206 938  0.2+  0.8+  

040914 E12  0.1+  0.3+    041118 413  0.1-  0.0     041206 938  0.0   1.3+  

040914 E12  0.1-  0.4+    041118 413  0.1-  0.0     041206 938  0.3+  0.5+  

040914 E12  0.2-  0.9-    041123 413  0.0   0.1-    041207 448  0.2+  0.1+  

040914 474  0.3-  0.1+    041123 413  0.0   0.1-    041207 448  0.4+  0.8+  

040914 474  0.2-  0.2+    041123 413  0.0   0.1-    041207 448  0.2+  0.3-  

040914 474  0.2-  0.2+    041124 413  0.0   0.0     041207 448  0.3+  0.4+  

040918 E12  0.0   0.2+    041124 413  0.0   0.1-    041207 448  0.2+  0.2-  

040918 E12  0.2-  0.3+    041124 413  0.0   0.1-    041207 379  0.0   0.1-  

040918 E12  0.1-  0.1-    041204 938  0.4+  0.4+    041207 379  0.0   0.4-  

040918 E12  0.2-  0.2+    041204 938  0.3+  0.0     041207 379  0.3-  0.4-  

040918 E12  0.4+  0.0     041204 938  0.5+  0.0     041207 379  0.1+  0.4-  

040918 E12  0.4+  0.7+    041204 938  0.5+  1.0+    041207 379  0.1-  0.3-  

040918 E12  0.1+  0.2-    041204 938  0.0   0.4+    041207 379  0.1-  0.7-  

040918 E12  0.1+  0.1-    041204 938  0.4+  0.2+    041207 379  0.2+  0.3-  

040918 E12  0.6-  0.5+    041204 938  0.3+  0.1-    041207 379  0.1+  0.3-  

040918 E12  0.9-  0.0     041204 938  0.3-  0.8+    041207 379  0.1-  0.6-  

040918 E12  0.4-  1.0-    041204 938  0.0   0.5+    041207 379  0.3-  0.7-  

040918 E12  0.3+  0.5+    041205 201  0.4+  0.0     041207 379  0.0   0.6-  

040919 474  0.0   0.5+    041205 201  0.1+  0.5+    041207 379  0.1-  0.4-  

040919 474  0.5+  0.1+    041205 201  0.5+  0.0     041207 379  0.1-  0.3-  

040919 474  0.1-  0.1+    041205 201  0.2+  0.4+    041207 379  0.1+  0.7-  

040920 E14  0.1+  0.3+    041205 201  0.3+  0.0     041207 379  0.3-  0.5-  

040920 E14  0.3-  0.3-    041205 201  0.1+  0.6+    041207 379  0.0   0.7-  

040920 E14  0.2+  0.0     041205 201  0.1+  0.6+    041207 379  0.2-  0.6-  

040920 474  0.1+  0.1+    041205 201  0.4+  0.9+    041207 379  0.2+  0.3-  

040920 474  0.4+  0.4-    041205 201  0.2-  0.1+    041207 379  0.4-  0.8-  

040920 474  0.1+  0.1-    041205 201  0.1+  0.2+    041207 379  0.2-  0.5-  

040920 474  0.1-  0.0     041205 201  0.1+  0.2+    041207 379  0.0   0.4-  

040921 428  0.3-  0.1-    041206 704  0.7-  0.3+    041207 379  0.1-  0.6-  

040921 428  0.3+  0.0     041206 704  0.2-  0.5+    041207 379  0.1-  0.4-  

040921 428  0.0   0.1+    041206 704  0.4-  0.2-    041207 379  0.1+  0.4-  

040926 413  0.0   0.1-    041206 704  0.1-  0.2+    041207 379  0.2-  0.8-  

040926 413  0.1+  0.0     041206 704  0.1-  0.4+    041207 379  0.4-  0.5-  

040926 413  0.1+  0.0     041206 379  0.0   0.5-    041207 379  0.2-  0.8-  

041008 474  0.0   0.5+    041206 379  0.0   0.7-    041207 379  0.5-  0.8-  

041008 474  0.0   0.5+    041206 379  0.2+  0.2+    041207 587  0.6-  0.4-  

041008 474  0.3+  0.0     041206 379  0.3-  0.1-    041207 587  0.2+  0.2+  

041011 428  0.0   0.4-    041206 379  0.1+  0.1+    041207 587  0.5-  0.6-  

041011 428  0.1-  0.1-    041206 379  0.3-  0.3-    041208 300  0.8+  1.3+  

041011 428  0.1-  0.2+    041206 379  0.3-  0.5-    041208 300  1.1+  1.6+  

041012 E12  1.8+  0.7+    041206 379  0.1+  0.2+    041208 300  0.1-  0.1-  

041012 E12  0.6-  0.2-    041206 379  0.1-  0.1-    041208 300 (4.0+  1.7+) 

041012 E12  0.1-  0.2-    041206 379  0.2-  0.2-    041208 300  0.4+  0.7+  

041012 E12  0.7+  0.8+    041206 379  0.4+  0.2+    041208 300  0.3-  0.5+  

041015 E14  0.0   0.2-    041206 379  0.1+  0.4+    041208 300  0.0   1.0+  

041015 E14  0.0   0.2-    041206 379  0.0   0.1-    041208 300  0.3-  0.0   

041015 E14  0.3+  0.2-    041206 379  0.0   0.4-    041208 300  0.3-  0.1-  

041030 474  0.0   0.2+    041206 379  0.1+  0.3+    041208 300  0.0   1.4+  

041030 474  0.0   0.1+    041206 379  0.0   0.5-    041208 300  0.8-  0.0   

041030 474  0.1+  0.1+    041206 379  0.1-  0.5-    041208 300  0.4-  0.3+  

041031 474  0.1-  0.1+    041206 379  0.0   0.0                             

 

 

OBSERVATORY: 300 133.544570.823371+0.565729Bisei Spaceguard Center-BATTeRS      

        

 

Date        Time (UT)  R. A. (2000) Decl.         Delta     R       Mag.   Daily

 Motion Obj. h     A   Sun h    A  

Year Mo. D.  h  m  s     h  m  s       。  ,  "         AU      AU    V        , 

    。        。      。      。      。

2004 12  8  08 00 00   01 52 39.5   +17 41 26     0.01799   0.998   11.9  1312.4

/ 18.8    +36.6  273    - 1.7   63 

2004 12  8  09 00 00   01 53 54.1   +18 33 10     0.01798   0.998   11.8  1308.0

/ 18.7    +49.1  282    -13.1   71 

2004 12  8  10 00 00   01 55 08.1   +19 24 47     0.01798   0.998   11.8  1302.3

/ 18.6    +61.2  294    -25.0   79 

2004 12  8  11 00 00   01 56 21.9   +20 16 12     0.01799   0.998   11.8  1296.8

/ 18.7    +71.7  317    -37.2   86 

2004 12  8  12 00 00   01 57 36.1   +21 07 23     0.01800   0.998   11.8  1290.7

/ 18.8    +76.6    7    -49.6   95 

2004 12  8  13 00 00   01 58 51.0   +21 58 16     0.01803   0.998   11.8  1284.2

/ 19.2    +71.0   53    -61.7  107 

2004 12  8  14 00 00   02 00 07.2   +22 48 48     0.01805   0.999   11.8  1278.7

/ 19.6    +60.5   75    -72.8  129 

2004 12  8  15 00 00   02 01 25.1   +23 38 59     0.01809   0.999   11.8  1273.4

/ 20.1    +48.9   87    -78.3  182 

2004 12  8  16 00 00   02 02 45.1   +24 28 48     0.01813   0.999   11.8  1268.4

/ 20.7    +37.1   96    -72.1  233 

2004 12  8  17 00 00   02 04 07.6   +25 18 14     0.01817   0.999   11.8  1264.9

/ 21.3    +25.6  104    -60.9  254 

2004 12  8  18 00 00   02 05 32.8   +26 07 20     0.01822   0.999   11.8  1261.7

/ 21.9    +14.5  112    -48.8  266 

2004 12  8  19 00 00   02 07 00.7   +26 56 06     0.01827   0.999   11.8  1258.9

/ 22.5    + 4.1  120    -36.4  274 

2004 12  8  20 00 00   02 08 31.3   +27 44 32     0.01833   0.999   11.8  1257.0

/ 23.0    - 5.3  129    -24.2  282 

2004 12  8  21 00 00   02 10 04.5   +28 32 43     0.01839   0.999   11.8  1254.9

/ 23.4    -13.4  139    -12.3  289 

2004 12  8  22 00 00   02 11 40.0   +29 20 40     0.01846   0.999   11.8  1252.2

/ 23.8    -19.6  151    - 1.0  297 

                                                   .         .        .       . 

    .        .             .       

2004 12  9  08 00 00   02 28 06.7   +37 05 50     0.01923   1.000   11.8  1152.0

/ 23.0    +38.2  247    - 1.7   63 

2004 12  9  09 00 00   02 29 41.6   +37 50 00     0.01933   1.000   11.8  1133.5

/ 22.9    +49.6  250    -13.0   71 

2004 12  9  10 00 00   02 31 15.6   +38 33 28     0.01943   1.001   11.8  1114.0

/ 23.0    +61.1  251    -25.0   78 

2004 12  9  11 00 00   02 32 49.3   +39 16 10     0.01954   1.001   11.8  1094.9

/ 23.2    +72.4  248    -37.2   86 

2004 12  9  12 00 00   02 34 23.0   +39 58 04     0.01965   1.001   11.8  1075.9

/ 23.5    +82.4  222    -49.5   95 

2004 12  9  13 00 00   02 35 57.3   +40 39 08     0.01977   1.001   11.8  1057.3

/ 24.0    +81.1  136    -61.7  106 

2004 12  9  14 00 00   02 37 32.7   +41 19 21     0.01989   1.001   11.9  1040.4

/ 24.6    +70.9  118    -72.7  128 

2004 12  9  15 00 00   02 39 09.7   +41 58 44     0.02002   1.001   11.9  1024.8

/ 25.3    +60.0  116    -78.4  182 

2004 12  9  16 00 00   02 40 48.8   +42 37 18     0.02015   1.001   11.9  1010.6

/ 26.0    +49.2  118    -72.2  233 

2004 12  9  17 00 00   02 42 30.3   +43 15 06     0.02029   1.001   11.9   998.8

/ 26.9    +38.8  121    -61.1  254 

2004 12  9  18 00 00   02 44 14.7   +43 52 10     0.02043   1.001   11.9   988.6

/ 27.7    +28.9  126    -48.9  266 

2004 12  9  19 00 00   02 46 02.0   +44 28 36     0.02057   1.002   11.9   979.6

/ 28.5    +19.7  131    -36.6  274 

2004 12  9  20 00 00   02 47 52.2   +45 04 26     0.02072   1.002   11.9   972.4

/ 29.2    +11.4  138    -24.3  282 

2004 12  9  21 00 00   02 49 45.3   +45 39 44     0.02087   1.002   12.0   965.8

/ 29.8    + 4.3  145    -12.5  289 

2004 12  9  22 00 00   02 51 41.1   +46 14 36     0.02102   1.002   12.0   959.3

/ 30.3    - 1.4  153    - 1.1  297 

                                                   .         .        .       . 

    .        .             .       

2004 12 10  08 00 00   03 11 42.6   +51 42 05     0.02260   1.003   12.1   839.0

/ 30.5    +35.2  227    - 1.6   63 

2004 12 10  09 00 00   03 13 38.5   +52 12 09     0.02277   1.003   12.2   819.8

/ 30.6    +44.1  228    -13.0   71 

